When you browse on this site, cookies collect data to enhance your experience and personalize the content and advertising you see.
Visit our Privacy Policy to learn more. By continuing to use the site, you agree to this use of cookies and data.
  • In France
  • List of Countries
  • For 7 days
  • Water Temperature
  • Weather Map
  • Weather Widgets
  • user-avatar
    Login

    Hourly Weather Mayrhofen

    Today, 16 September, Monday

    Time Temperature Precipitation Wind Pressure Humidity
    00:00 +10°C° 0 mm 1 mps 623 mmHg 92%
    01:00 +10°C° 0 mm 1 mps 623 mmHg 93%
    02:00 +10°C° 0 mm 1 mps 622 mmHg 94%
    03:00 +9°C° 0 mm 1 mps 622 mmHg 94%
    04:00 +9°C° 0 mm 1 mps 621 mmHg 94%
    05:00 +10°C° 0 mm 1 mps 622 mmHg 91%
    06:00 +11°C° 0 mm 1 mps 622 mmHg 88%
    07:00 +13°C° 0 mm 1 mps 623 mmHg 86%
    08:00 +15°C° 0 mm 1 mps 623 mmHg 73%
    09:00 +18°C° 0 mm 1 mps 624 mmHg 61%
    10:00 +20°C° 0 mm 1 mps 625 mmHg 48%
    11:00 +21°C° 0 mm 1 mps 625 mmHg 47%
    12:00 +22°C° 0 mm 1 mps 625 mmHg 45%
    13:00 +22°C° 0 mm 1 mps 625 mmHg 43%
    14:00 +21°C° 0.1 mm 2 mps 624 mmHg 47%
    15:00 +20°C° 0.1 mm 2 mps 624 mmHg 51%
    16:00 +19°C° 0.1 mm 2 mps 623 mmHg 55%
    17:00 +17°C° 0.1 mm 2 mps 622 mmHg 66%
    18:00 +14°C° 0.1 mm 1 mps 621 mmHg 78%
    19:00 +12°C° 0.1 mm 1 mps 620 mmHg 89%
    20:00 +11°C° 0 mm 1 mps 620 mmHg 89%
    21:00 +11°C° 0 mm 1 mps 620 mmHg 90%
    22:00 +10°C° 0 mm 1 mps 620 mmHg 91%
    23:00 +10°C° 0 mm 1 mps 620 mmHg 91%

    Tomorrow, 17 September, Tuesday

    Time Temperature Precipitation Wind Pressure Humidity
    00:00 +9°C° 0 mm 1 mps 620 mmHg 92%
    01:00 +9°C° 0 mm 1 mps 620 mmHg 93%
    02:00 +9°C° 0 mm 1 mps 619 mmHg 93%
    03:00 +9°C° 0 mm 1 mps 619 mmHg 92%
    04:00 +9°C° 0 mm 1 mps 618 mmHg 92%
    05:00 +9°C° 0 mm 1 mps 619 mmHg 91%
    06:00 +10°C° 0 mm 1 mps 619 mmHg 90%
    07:00 +11°C° 0 mm 1 mps 620 mmHg 89%
    08:00 +12°C° 0 mm 1 mps 620 mmHg 82%
    09:00 +14°C° 0 mm 1 mps 621 mmHg 75%
    10:00 +16°C° 0 mm 1 mps 622 mmHg 69%
    11:00 +18°C° 0.1 mm 1 mps 622 mmHg 65%
    12:00 +17°C° 0.1 mm 2 mps 622 mmHg 61%
    13:00 +18°C° 0.1 mm 2 mps 622 mmHg 57%
    14:00 +17°C° 0.2 mm 2 mps 621 mmHg 63%
    15:00 +16°C° 0.2 mm 2 mps 621 mmHg 69%
    16:00 +16°C° 0.2 mm 2 mps 620 mmHg 75%
    17:00 +14°C° 0.1 mm 2 mps 620 mmHg 82%
    18:00 +12°C° 0.1 mm 2 mps 619 mmHg 89%
    19:00 +9°C° 0.1 mm 2 mps 619 mmHg 96%
    20:00 +9°C° 0.1 mm 2 mps 619 mmHg 96%
    21:00 +9°C° 0.1 mm 2 mps 619 mmHg 96%
    22:00 +9°C° 0.1 mm 2 mps 620 mmHg 96%
    23:00 +8°C° 0.1 mm 2 mps 620 mmHg 96%

    Day after tomorrow, 18 September, Wednesday

    Time Temperature Precipitation Wind Pressure Humidity
    00:00 +8°C° 0.1 mm 2 mps 620 mmHg 96%
    01:00 +8°C° 0.1 mm 2 mps 620 mmHg 96%
    02:00 +7°C° 0 mm 2 mps 620 mmHg 96%
    03:00 +7°C° 0 mm 2 mps 619 mmHg 96%
    04:00 +7°C° 0 mm 2 mps 619 mmHg 96%
    05:00 +6°C° 0 mm 2 mps 619 mmHg 96%
    06:00 +6°C° 0 mm 2 mps 620 mmHg 95%
    07:00 +6°C° 0 mm 2 mps 620 mmHg 95%
    08:00 +7°C° 0 mm 2 mps 620 mmHg 92%
    09:00 +7°C° 0 mm 2 mps 620 mmHg 89%
    10:00 +8°C° 0 mm 2 mps 621 mmHg 86%
    11:00 +8°C° 0 mm 2 mps 621 mmHg 83%
    12:00 +9°C° 0 mm 2 mps 621 mmHg 80%
    13:00 +10°C° 0 mm 2 mps 621 mmHg 78%
    14:00 +10°C° 0 mm 2 mps 621 mmHg 77%
    15:00 +10°C° 0 mm 2 mps 621 mmHg 76%
    16:00 +10°C° 0 mm 2 mps 621 mmHg 75%
    17:00 +8°C° 0 mm 2 mps 620 mmHg 79%
    18:00 +7°C° 0 mm 2 mps 620 mmHg 83%
    19:00 +6°C° 0 mm 2 mps 620 mmHg 87%
    20:00 +6°C° 0 mm 1 mps 620 mmHg 89%
    21:00 +5°C° 0 mm 1 mps 620 mmHg 90%
    22:00 +5°C° 0 mm 1 mps 620 mmHg 92%
    23:00 +4°C° 0 mm 1 mps 620 mmHg 91%

    19 September, Thursday

    Time Temperature Precipitation Wind Pressure Humidity
    00:00 +4°C° 0 mm 1 mps 620 mmHg 91%
    01:00 +3°C° 0 mm 1 mps 619 mmHg 90%
    02:00 +3°C° 0 mm 1 mps 619 mmHg 90%
    03:00 +3°C° 0 mm 1 mps 619 mmHg 90%
    04:00 +3°C° 0 mm 1 mps 619 mmHg 89%
    05:00 +3°C° 0 mm 1 mps 619 mmHg 87%
    06:00 +4°C° 0 mm 1 mps 620 mmHg 85%
    07:00 +4°C° 0 mm 1 mps 620 mmHg 82%
    08:00 +6°C° 0 mm 1 mps 621 mmHg 72%
    09:00 +7°C° 0 mm 2 mps 622 mmHg 61%
    10:00 +10°C° 0 mm 2 mps 623 mmHg 50%
    11:00 +10°C° 0 mm 2 mps 623 mmHg 47%
    12:00 +12°C° 0 mm 2 mps 623 mmHg 45%
    13:00 +13°C° 0 mm 2 mps 623 mmHg 42%
    14:00 +12°C° 0 mm 2 mps 623 mmHg 45%
    15:00 +11°C° 0 mm 3 mps 623 mmHg 47%
    16:00 +11°C° 0 mm 3 mps 623 mmHg 50%
    17:00 +8°C° 0 mm 2 mps 622 mmHg 62%
    18:00 +5°C° 0 mm 2 mps 621 mmHg 74%
    19:00 +4°C° 0 mm 1 mps 621 mmHg 86%
    20:00 +3°C° 0 mm 1 mps 621 mmHg 87%
    21:00 +3°C° 0 mm 1 mps 621 mmHg 87%
    22:00 +2°C° 0 mm 1 mps 621 mmHg 88%
    23:00 +2°C° 0 mm 1 mps 621 mmHg 87%

    20 September, Friday

    Time Temperature Precipitation Wind Pressure Humidity
    00:00 +2°C° 0 mm 1 mps 621 mmHg 86%
    01:00 +2°C° 0 mm 1 mps 621 mmHg 85%
    02:00 +1°C° 0 mm 0 mps 621 mmHg 82%
    03:00 +1°C° 0 mm 0 mps 621 mmHg 80%
    04:00 +1°C° 0 mm 0 mps 621 mmHg 78%
    05:00 +2°C° 0 mm 0 mps 621 mmHg 74%
    06:00 +3°C° 0 mm 0 mps 621 mmHg 70%
    07:00 +4°C° 0 mm 0 mps 622 mmHg 66%
    08:00 +7°C° 0 mm 1 mps 623 mmHg 56%
    09:00 +10°C° 0 mm 1 mps 624 mmHg 46%
    10:00 +12°C° 0 mm 1 mps 625 mmHg 36%
    11:00 +13°C° 0 mm 1 mps 625 mmHg 35%
    12:00 +14°C° 0 mm 2 mps 625 mmHg 34%
    13:00 +15°C° 0 mm 2 mps 625 mmHg 33%
    14:00 +14°C° 0 mm 2 mps 625 mmHg 37%
    15:00 +14°C° 0 mm 2 mps 624 mmHg 40%
    16:00 +14°C° 0 mm 2 mps 624 mmHg 44%
    17:00 +10°C° 0 mm 1 mps 623 mmHg 57%
    18:00 +7°C° 0 mm 1 mps 622 mmHg 71%
    19:00 +4°C° 0 mm 1 mps 621 mmHg 84%
    20:00 +4°C° 0 mm 1 mps 621 mmHg 83%
    21:00 +4°C° 0 mm 1 mps 621 mmHg 82%
    22:00 +4°C° 0 mm 1 mps 622 mmHg 82%
    23:00 +4°C° 0 mm 1 mps 622 mmHg 83%

    21 September, Saturday

    Time Temperature Precipitation Wind Pressure Humidity
    00:00 +4°C° 0 mm 1 mps 622 mmHg 85%
    01:00 +4°C° 0 mm 1 mps 622 mmHg 86%
    02:00 +5°C° 0 mm 1 mps 622 mmHg 87%
    03:00 +5°C° 0 mm 1 mps 622 mmHg 88%
    04:00 +5°C° 0 mm 1 mps 622 mmHg 89%
    05:00 +6°C° 0 mm 1 mps 622 mmHg 87%
    06:00 +6°C° 0 mm 1 mps 622 mmHg 85%
    07:00 +7°C° 0 mm 1 mps 622 mmHg 83%
    08:00 +9°C° 0 mm 1 mps 623 mmHg 72%
    09:00 +12°C° 0 mm 1 mps 624 mmHg 60%
    10:00 +15°C° 0 mm 1 mps 625 mmHg 49%
    11:00 +16°C° 0 mm 1 mps 626 mmHg 46%
    12:00 +18°C° 0 mm 1 mps 626 mmHg 43%
    13:00 +19°C° 0 mm 1 mps 626 mmHg 40%
    14:00 +18°C° 0 mm 1 mps 626 mmHg 43%
    15:00 +18°C° 0 mm 1 mps 625 mmHg 46%
    16:00 +18°C° 0 mm 1 mps 625 mmHg 49%
    17:00 +14°C° 0 mm 1 mps 624 mmHg 62%
    18:00 +11°C° 0 mm 1 mps 623 mmHg 75%
    19:00 +8°C° 0 mm 1 mps 622 mmHg 88%
    20:00 +8°C° 0 mm 1 mps 622 mmHg 88%
    21:00 +7°C° 0 mm 1 mps 622 mmHg 89%
    22:00 +7°C° 0 mm 1 mps 622 mmHg 90%
    23:00 +7°C° 0 mm 1 mps 622 mmHg 90%
    Show more